Location: Falconara Alta
(43.6167°N, 13.4000°E)
Time: 03:04:15
(UTC+00:00)

Cosmos 489 Rocket - Pass Details

Date: 09 April 2020
Orbit: 952 x 983 km, 74.0° (Epoch: 29 May)

Event Time Altitude Azimuth Distance (km) Brightness Sun altitude
Rises 20:06:55 0° 341° (NNW) 3,638 8.4 -24.2°
Reaches altitude 10° 20:09:29 10° 345° (NNW) 2,690 7.5 -24.5°
Maximum altitude 20:15:39 63° 66° (ENE) 1,065 4.5 -25.4°
Enters shadow 20:16:26 58° 101° (E) 1,110 4.4 -25.5°
